Starlink 31295

operational
NORAD ID: 59095 Int'l Des: 2024-041 Owner: SPXS Country: US Constellation: starlink
LEOCIRCULAR

关于 Starlink 31295

正在加载描述...

实时位置

正在加载3D地球...

即将过境

高度历史

Altitude vs Time

uPlot chart will show altitude changes over time

两行轨道根数

1 59095U 24041X 26063.14377878 .00001898 00000-0 78465-4 0 9991
2 59095 42.9995 341.9962 0000467 265.2987 94.7811 15.27582226113429
Epoch: Mar 4, 2026 • Age: 9 hours

当前状态

高度 495.7 km
速度 7.62 km/s
星下点 -42.37°S, 64.29°W
发射日期 Feb 29, 2024
运行时间 2 years
类型 internet

技术详情

分类 Payload
质量 730.00 kg
干质量 700.00 kg
总质量 730.00 kg
长度 0.30 m
直径 4.10 m
跨度 29.00 m
形状 Box + pan
制造商 SPXS
平台类型 Starlink V2M
阶段状态 In Orbit
所有者/国家 SPXS/US

大型星座

Loading constellations...